leoforos.gr alexa rank chart, leoforos.gr alexa rank daily changes

leoforos.gr alexa rank chart, leoforos.gr alexa rank daily changes

leoforos.gr
Actual rank:
45 478

RANK HISTORY

Date Rank Diff
2017/07/27 45 478 +337
2017/07/26 45 141 +715
2017/07/25 44 426 +300
2017/07/24 44 126 +158
2017/07/23 43 968 +290
2017/07/22 43 678 +240
2017/07/21 43 438 +153
2017/07/20 43 285 -70
2017/07/19 43 355 +371
2017/07/18 42 984 +450
2017/07/17 42 534 +337
2017/07/16 42 197 +154
2017/07/15 42 043 +159
2017/07/14 41 884 +2 468
2017/07/13 39 416 +1 896
2017/07/12 37 520 +392
2017/07/11 37 128 -33
2017/07/10 37 161 -24
2017/07/09 37 185 +4
2017/07/08 37 181 -14
2017/07/07 37 195 -156
2017/07/06 37 351 +119
2017/07/05 37 232 -195
2017/07/04 37 427 +338
2017/07/03 37 089 +431
2017/07/02 36 658 +229
2017/07/01 36 429 -600
2017/06/30 37 029 -116
2017/06/29 37 145 -225
2017/06/28 37 370 +51
2017/06/27 37 319 -7
2017/06/26 37 326 -566
2017/06/25 37 892 -253
2017/06/24 38 145 -214
2017/06/23 38 359 -300
2017/06/22 38 659 -422
2017/06/21 39 081 -155
2017/06/20 39 236 +630
2017/06/19 38 606 -11
2017/06/18 38 617 -644
2017/06/17 39 261 -277
2017/06/16 39 538 +31
2017/06/15 39 507 -593
2017/06/14 40 100 -2 737
2017/06/13 42 837 -3 034
2017/06/12 45 871 -1 153
2017/06/11 47 024 -537
2017/06/10 47 561 -424
2017/06/09 47 985 +345
2017/06/08 47 640 +204
2017/06/07 47 436 -202
2017/06/06 47 638 -945
2017/06/05 48 583 -167
2017/06/04 48 750 -1 001
2017/06/03 49 751 -1 257
2017/06/02 51 008 -1 266
2017/06/01 52 274 -133
2017/05/31 52 407 -144
2017/05/30 52 551 +556
2017/05/29 51 995 +1 279
2017/05/28 50 716

WIDGET FOR YOUR SITE

DOMAINS WITH THE NEAREST RANK

Domain Rank
cinecalidad.tv 45 473
mangobaaz.com 45 474
thenightseries.net 45 475
paginasamarillas.com.ar 45 476
hellobi.com 45 477
leoforos.gr 45 478
purbelinews.com 45 479
humankinetics.com 45 480
kuqin.com 45 481
karunya.edu 45 482
bnpparibas.com 45 483

DOMAINS WITH THE NEAREST RANK BY TLD .gr

Domain Rank
oroskopos.gr 43 543
filathlos.gr 43 707
nova.gr 43 948
novasports.gr 44 079
news.gr 44 944
leoforos.gr 45 478
amna.gr 46 114
madata.gr 46 769
pireaspress.gr 47 118
veriotis.gr 47 500
e-prescription.gr 47 756